Weather History for Phuket, Thailand

Change the Weather History Date:

Sunday, December 29, 2013

  Actual Average Record
Temperature  
Mean Temperature 80 °F -  
Max Temperature 86 °F 89 °F 95 °F (1997)
Min Temperature 74 °F 74 °F 71 °F (1999)
Cooling Degree Days 15    
Growing Degree Days 30 (Base 50)    
Moisture  
Dew Point 66 °F    
Average Humidity 62    
Maximum Humidity 69    
Minimum Humidity 48    
Precipitation  
Precipitation 0.00 in 0.06 in - ()
Sea Level Pressure  
Sea Level Pressure 29.86 in    
Wind  
Wind Speed 10 mph ()    
Max Wind Speed 16 mph    
Max Gust Speed 24 mph    
Visibility 4.4 miles    
Events      
Averages and records for this station are not official NWS values.
T = Trace of Precipitation, MM = Missing Value Source: Averaged Metar Reports

Daily Weather History Graph

Daily Weather History Graph

Search for Another Location

Airport:

Trip Planner

Search our weather history database for the weather conditions in past years. The results will help you decide how hot, cold, wet, or windy it might be!

Date:

Astronomy

Dec. 29, 2013 Rise Set
Actual Time 6:38 AM ICT 6:18 PM ICT
Civil Twilight 6:16 AM ICT 6:41 PM ICT
Nautical Twilight 5:50 AM ICT 7:07 PM ICT
Astronomical Twilight 5:23 AM ICT 7:33 PM ICT
Moon 3:07 AM ICT (12/29) 3:14 PM ICT (12/29)
Length of Visible Light 12h 24m
Length of Day
11h 39m
Waning Crescent, 15% of the Moon is Illuminated
Dec 29
Waning Crescent
Jan 1
New
Jan 8
First Quarter
Jan 16
Full
Jan 24
Last Quarter

Hourly Weather History & Observations

Time (ICT) Temp. Heat Index Dew Point Humidity Pressure Visibility Wind Dir Wind Speed Gust Speed Precip Events Conditions
12:00 AM 77.0 °F - 66.2 °F 69% 29.89 in 4.3 mi East 11.5 mph - N/A   Partly Cloudy
12:30 AM 77.0 °F - 66.2 °F 69% 29.89 in 4.3 mi East 11.5 mph - N/A   Partly Cloudy
1:00 AM 78 °F - 69 °F 67% 29.85 in 6 mi East 5.8 mph - -   Scattered Clouds
1:00 AM 77.0 °F - 66.2 °F 69% 29.89 in 4.3 mi East 12.7 mph - N/A   Partly Cloudy
1:30 AM 77.0 °F - 64.4 °F 65% 29.86 in 4.3 mi ENE 11.5 mph - N/A   Partly Cloudy
2:00 AM 77.0 °F - 64.4 °F 65% 29.86 in 6.2 mi East 9.2 mph - N/A   Partly Cloudy
3:00 AM 77.0 °F - 64.4 °F 65% 29.83 in 4.3 mi East 13.8 mph - N/A   Scattered Clouds
3:30 AM 77.0 °F - 64.4 °F 65% 29.83 in 4.3 mi ENE 9.2 mph - N/A   Scattered Clouds
4:00 AM 77 °F - 69 °F 69% 29.80 in 6 mi ENE 6.9 mph - -   Scattered Clouds
5:00 AM 75.2 °F - 64.4 °F 69% 29.83 in - East 8.1 mph - N/A   Scattered Clouds
6:00 AM 75.2 °F - 62.6 °F 65% 29.83 in 4.3 mi ENE 9.2 mph - N/A   Partly Cloudy
6:30 AM 75.2 °F - 62.6 °F 65% 29.86 in 4.3 mi ENE 13.8 mph - N/A   Partly Cloudy
7:00 AM 75 °F - 67 °F 69% 29.85 in 4 mi ENE 9.2 mph - -   Mist
7:00 AM 75.2 °F - 62.6 °F 65% 29.86 in 4.3 mi East 13.8 mph - N/A   Mostly Cloudy
7:30 AM 75.2 °F - 62.6 °F 65% 29.86 in 4.3 mi ENE 11.5 mph - N/A   Mostly Cloudy
8:00 AM 77.0 °F - 64.4 °F 65% 29.89 in 4.3 mi ENE 11.5 mph - N/A   Mostly Cloudy
8:30 AM 77.0 °F - 64.4 °F 65% 29.89 in 4.3 mi ENE 13.8 mph - N/A   Mostly Cloudy
9:30 AM 78.8 °F - 64.4 °F 61% 29.92 in 4.3 mi ENE 13.8 mph - N/A   Mostly Cloudy
10:00 AM 80 °F - 66 °F 53% 29.88 in 5 mi East 11.5 mph - -   Haze
10:00 AM 82.4 °F 83.9 °F 64.4 °F 54% 29.92 in 4.3 mi ENE 16.1 mph - N/A   Mostly Cloudy
10:30 AM 82.4 °F 83.9 °F 64.4 °F 54% 29.89 in 4.3 mi ENE 15.0 mph - N/A   Mostly Cloudy
11:00 AM 84.2 °F 85.6 °F 64.4 °F 51% 29.89 in 4.3 mi ENE 12.7 mph - N/A   Mostly Cloudy
11:30 AM 84.2 °F 86.6 °F 66.2 °F 55% 29.89 in 4.3 mi ENE 13.8 mph - N/A   Mostly Cloudy
12:00 PM 82.4 °F 84.6 °F 66.2 °F 58% 29.86 in 4.3 mi ENE 13.8 mph - N/A   Mostly Cloudy
12:30 PM 84.2 °F 86.6 °F 66.2 °F 55% 29.86 in 4.3 mi East 12.7 mph - N/A   Mostly Cloudy
1:00 PM 84 °F - 69 °F 51% 29.85 in 4 mi East 6.9 mph - -   Haze
1:00 PM 84.2 °F 87.3 °F 68.0 °F 58% 29.86 in 4.3 mi ENE 12.7 mph - N/A   Mostly Cloudy
1:30 PM 84.2 °F 87.3 °F 68.0 °F 58% 29.83 in 4.3 mi ENE 13.8 mph - N/A   Mostly Cloudy
2:00 PM 86.0 °F 89.4 °F 68.0 °F 55% 29.83 in 4.3 mi East 11.5 mph - N/A   Mostly Cloudy
2:30 PM 84.2 °F 86.6 °F 66.2 °F 55% 29.80 in 4.3 mi East 9.2 mph - N/A   Mostly Cloudy
3:00 PM 86.0 °F 88.2 °F 66.2 °F 51% 29.80 in 4.3 mi ENE 12.7 mph 24.2 mph N/A   Mostly Cloudy
3:30 PM 84.2 °F 86.6 °F 66.2 °F 55% 29.80 in 4.3 mi East 12.7 mph - N/A   Mostly Cloudy
4:00 PM 85 °F - 68 °F 48% 29.78 in 4 mi East 10.4 mph - -   Haze
4:00 PM 84.2 °F 86.6 °F 66.2 °F 55% 29.80 in 4.3 mi ENE 13.8 mph - N/A   Mostly Cloudy
4:30 PM 84.2 °F 87.3 °F 68.0 °F 58% 29.80 in 4.3 mi ENE 12.7 mph - N/A   Mostly Cloudy
5:00 PM 82.4 °F 84.6 °F 66.2 °F 58% 29.80 in 4.3 mi ENE 11.5 mph - N/A   Mostly Cloudy
5:30 PM 82.4 °F 84.6 °F 66.2 °F 58% 29.83 in 4.3 mi ENE 12.7 mph - N/A   Mostly Cloudy
6:00 PM 80.6 °F 82.7 °F 66.2 °F 61% 29.83 in 4.3 mi ENE 12.7 mph - N/A   Mostly Cloudy
6:30 PM 80.6 °F 82.7 °F 66.2 °F 61% 29.83 in 4.3 mi ENE 12.7 mph - N/A   Mostly Cloudy
7:00 PM 81 °F - 68 °F 57% 29.81 in 4 mi ENE 8.1 mph - -   Mist
7:00 PM 78.8 °F - 66.2 °F 65% 29.86 in 4.3 mi ENE 12.7 mph - N/A   Mostly Cloudy
7:30 PM 78.8 °F - 66.2 °F 65% 29.86 in 4.3 mi ENE 10.4 mph - N/A   Mostly Cloudy
8:00 PM 78.8 °F - 66.2 °F 65% 29.89 in 4.3 mi ENE 11.5 mph - N/A   Mostly Cloudy
8:30 PM 78.8 °F - 66.2 °F 65% 29.89 in 4.3 mi East 10.4 mph - N/A   Mostly Cloudy
9:00 PM 77.0 °F - 66.2 °F 69% 29.92 in 4.3 mi ENE 10.4 mph - N/A   Mostly Cloudy
9:30 PM 77.0 °F - 66.2 °F 69% 29.92 in 4.3 mi East 9.2 mph - N/A   Mostly Cloudy
10:00 PM 78 °F - 68 °F 64% 29.88 in 4 mi East 11.5 mph - -   Mist
10:00 PM 77.0 °F - 66.2 °F 69% 29.92 in 4.3 mi East 9.2 mph - N/A   Mostly Cloudy
10:30 PM 77.0 °F - 66.2 °F 69% 29.92 in 4.3 mi East 8.1 mph - N/A   Mostly Cloudy
11:00 PM 77.0 °F - 66.2 °F 69% 29.89 in 4.3 mi East 9.2 mph - N/A   Mostly Cloudy
11:30 PM 77.0 °F - 66.2 °F 69% 29.89 in 4.3 mi East 10.4 mph - N/A   Mostly Cloudy